Needles, CA

1:49 PM PDT on August 18, 2017 (GMT -0700)
Needles

Weather History for KEED - November, 2012

Change the Weather History Date:

Tuesday, November 13, 2012

  Actual Average Record
Temperature  
Mean Temperature 60 °F 63 °F  
Max Temperature 73 °F 75 °F 88 °F (1934)
Min Temperature 46 °F 51 °F 33 °F (1919)
Degree Days  
Heating Degree Days 6    
Cooling Degree Days 0    
Growing Degree Days 10 (Base 50)    
Moisture  
Dew Point 13 °F    
Average Humidity 17    
Maximum Humidity 25    
Minimum Humidity 8    
Precipitation  
Precipitation 0.00 in 0.02 in 0.59 in (1946)
Month to date precipitation 0.16  
Year to date precipitation 3.87  
Sea Level Pressure  
Sea Level Pressure 30.12 in    
Wind  
Wind Speed 8 mph (NNW)    
Max Wind Speed 17 mph    
Max Gust Speed 23 mph    
Visibility 10 miles    
Events      
T = Trace of Precipitation, MM = Missing Value Source: NWS Daily Summary

Daily Weather History Graph

Daily Weather History Graph

Search for Another Location

Airport or City:

Trip Planner

Search our weather history database for the weather conditions in past years. The results will help you decide how hot, cold, wet, or windy it might be!

Date:

Astronomy

Nov. 13, 2012 Rise Set
Actual Time 6:11 AM PST 4:34 PM PST
Civil Twilight 5:44 AM PST 5:00 PM PST
Nautical Twilight 5:13 AM PST 5:31 PM PST
Astronomical Twilight 4:44 AM PST 6:01 PM PST
Moon 5:53 AM PST (11/13) 4:32 PM PST (11/13)
Length of Visible Light 11h 16m
Length of Day
10h 23m
Waning Crescent, 0% of the Moon is Illuminated
Nov 13
Waning Crescent
Nov 13
New
Nov 20
First Quarter
Nov 28
Full
Dec 6
Last Quarter

Hourly Weather History & Observations

Time (PST) Temp. Windchill Dew Point Humidity Pressure Visibility Wind Dir Wind Speed Gust Speed Precip Events Conditions
12:56 AM 52.0 °F - 9.0 °F 18% 30.18 in 10.0 mi WNW 5.8 mph - N/A   Clear
1:56 AM 51.1 °F - 10.0 °F 19% 30.16 in 10.0 mi NW 6.9 mph - N/A   Clear
2:56 AM 50.0 °F - 10.9 °F 21% 30.16 in 10.0 mi WNW 5.8 mph - N/A   Clear
3:56 AM 48.0 °F - 12.9 °F 24% 30.17 in 10.0 mi Variable 4.6 mph - N/A   Clear
4:56 AM 46.9 °F - 12.9 °F 25% 30.18 in 10.0 mi West 8.1 mph - N/A   Clear
5:56 AM 46.0 °F 41.4 °F 12.0 °F 25% 30.19 in 10.0 mi West 9.2 mph - N/A   Clear
6:56 AM 51.1 °F - 12.9 °F 22% 30.20 in 10.0 mi West 5.8 mph - N/A   Clear
7:56 AM 57.9 °F - 17.1 °F 20% 30.20 in 10.0 mi NNW 5.8 mph - N/A   Clear
8:56 AM 60.1 °F - 18.0 °F 20% 30.20 in 10.0 mi North 9.2 mph - N/A   Clear
9:56 AM 64.0 °F - 16.0 °F 16% 30.19 in 10.0 mi North 10.4 mph - N/A   Clear
10:56 AM 66.9 °F - 16.0 °F 14% 30.17 in 10.0 mi North 8.1 mph - N/A   Clear
11:56 AM 71.1 °F - 10.9 °F 10% 30.12 in 10.0 mi North 17.3 mph - N/A   Clear
12:56 PM 73.0 °F - 9.0 °F 8% 30.08 in 10.0 mi North 17.3 mph 23.0 mph N/A   Clear
1:56 PM 73.9 °F - 12.0 °F 9% 30.05 in 10.0 mi North 15.0 mph - N/A   Clear
2:56 PM 73.9 °F - 10.0 °F 9% 30.05 in 10.0 mi NNE 15.0 mph 20.7 mph N/A   Clear
3:56 PM 72.0 °F - 12.0 °F 10% 30.05 in 10.0 mi North 8.1 mph - N/A   Clear
4:56 PM 66.9 °F - 12.9 °F 12% 30.06 in 10.0 mi NNW 5.8 mph - N/A   Clear
5:56 PM 64.0 °F - 14.0 °F 14% 30.08 in 10.0 mi NNW 8.1 mph - N/A   Clear
6:56 PM 63.0 °F - 14.0 °F 15% 30.08 in 10.0 mi NW 10.4 mph - N/A   Clear
7:56 PM 61.0 °F - 15.1 °F 17% 30.08 in 10.0 mi NNW 6.9 mph - N/A   Clear
8:56 PM 60.1 °F - 12.9 °F 16% 30.08 in 10.0 mi NW 9.2 mph - N/A   Clear
9:56 PM 60.1 °F - 12.9 °F 16% 30.08 in 10.0 mi North 10.4 mph - N/A   Clear
10:56 PM 55.0 °F - 12.0 °F 18% 30.09 in 10.0 mi WNW 8.1 mph - N/A   Clear
11:56 PM 51.1 °F - 12.0 °F 21% 30.08 in 10.0 mi West 6.9 mph - N/A   Clear